This is the latest recevied weather packets stored in our database for station/object DC4AT. If no packets are shown the sender has not sent any weather packets the latest 10 day(s).
| Time | Temp. | Humidity | Pressure | Rain* | Wind** | Luminosity | Snow |
|---|---|---|---|---|---|---|---|
| 1777886617 | 16.67° C | 73% | 1013.9 hPa | 0 mm | - | 454 W/m² | - |
| 1777886017 | 16.11° C | 74% | 1014 hPa | 0 mm | - | 462 W/m² | - |
| 1777885417 | 15.56° C | 75% | 1014.1 hPa | 0 mm | - | 371 W/m² | - |
| 1777884817 | 15.56° C | 74% | 1014.1 hPa | 0 mm | - | 200 W/m² | - |
| 1777884217 | 15.56° C | 75% | 1014.1 hPa | 0 mm | - | 181 W/m² | - |
| 1777883617 | 15.56° C | 74% | 1014.1 hPa | 0 mm | - | 213 W/m² | - |
| 1777883017 | 15° C | 75% | 1014.1 hPa | 0 mm | - | 172 W/m² | - |
| 1777882417 | 15° C | 75% | 1014.1 hPa | 0 mm | - | 192 W/m² | - |
| 1777881817 | 15° C | 75% | 1014.1 hPa | 0 mm | - | 165 W/m² | - |
| 1777881217 | 14.44° C | 75% | 1014.1 hPa | 0 mm | - | 125 W/m² | - |
| 1777880617 | 14.44° C | 76% | 1014 hPa | 0 mm | - | 111 W/m² | - |
| 1777880017 | 14.44° C | 75% | 1013.9 hPa | 0 mm | - | 104 W/m² | - |
| 1777879417 | 14.44° C | 75% | 1013.9 hPa | 0 mm | - | 132 W/m² | - |
| 1777878817 | 14.44° C | 75% | 1013.9 hPa | 0 mm | - | 156 W/m² | - |
| 1777878217 | 14.44° C | 75% | 1013.7 hPa | 0 mm | - | 153 W/m² | - |
| 1777877617 | 14.44° C | 75% | 1013.6 hPa | 0 mm | - | 160 W/m² | - |
| 1777877017 | 13.89° C | 75% | 1013.4 hPa | 0 mm | - | 142 W/m² | - |
| 1777876417 | 13.89° C | 75% | 1013.5 hPa | 0 mm | - | 111 W/m² | - |
| 1777875817 | 13.89° C | 76% | 1013.3 hPa | 0 mm | - | 76 W/m² | - |
| 1777875217 | 13.89° C | 77% | 1013.2 hPa | 0 mm | - | 69 W/m² | - |
| 1777874617 | 13.89° C | 76% | 1013.3 hPa | 0 mm | - | 74 W/m² | - |
| 1777874017 | 13.33° C | 75% | 1013.2 hPa | 0 mm | - | 51 W/m² | - |
| 1777873417 | 13.33° C | 76% | 1013.2 hPa | 0 mm | - | 91 W/m² | - |
| 1777872817 | 12.78° C | 78% | 1013.2 hPa | 0 mm | - | 70 W/m² | - |
| 1777872217 | 12.78° C | 80% | 1013.2 hPa | 0 mm | - | 69 W/m² | - |
* Rain latest hour (hover to see other rain measurements)
** Current wind speed in m/s (hover to see current wind gust speed)